Вернуться в каталог

GALAXY 1

АктивенСвязьGEO
NORAD 14158·PAYLOAD·🇺🇸 United States

Запущен Jun 28, 1983 с Cape Canaveral Space Force Station

Loading…

TLE

СвежийSource: Space-Track

Эпоха: Sep 14, 2026, 11:08 UTC

1 14158U 83065A   26257.46403885  .00000081  00000-0  00000-0 0  9990
2 14158  13.5359 341.0152 0003423 268.2461 131.8164  1.00117676 47525

Отслеживайте GALAXY 1 в реальном времени с AllMySat

Download on the App Store